Weather reports worldwide

Advertisment
Cap Corse, France (7785): temperature & dewpoint: 10.12.2019 13:00:00 - 16.12.2019 13:00:00 (CET)Cap Corse, France (7785): wind speed & gusts: 10.12.2019 13:00:00 - 16.12.2019 13:00:00 (CET)Cap Corse, France (7785): wind direction: 10.12.2019 13:00:00 - 16.12.2019 13:00:00 (CET)Cap Corse, France (7785): reduced air pressure: 10.12.2019 13:00:00 - 16.12.2019 13:00:00 (CET)Cap Corse, France (7785): visibility: 10.12.2019 13:00:00 - 16.12.2019 13:00:00 (CET)Cap Corse, France (7785): precipitation: 10.12.2019 13:00:00 - 16.12.2019 13:00:00 (CET)
Date & Time tt [°C] td [°C] ff [km/h] ff [kn] fx [km/h] fx [kn] dd ppp [hPa] vv [km] rr [mm]
16.12.2019 13:00:00 16,3 10,6 23 12 60 32 SE 1018,2 15 0,0
16.12.2019 12:00:00 16,2 10,5 32 18 54 29 SE 1018,6 - 0,0
16.12.2019 11:00:00 16,5 8,9 27 14 52 28 SE 1019,7 - 0,0
16.12.2019 10:00:00 15,9 8,6 22 12 44 24 SSE 1019,8 15 0,0
16.12.2019 09:00:00 14,8 8,9 24 13 43 23 SE 1019,3 - 0,0
16.12.2019 08:00:00 12,8 10,5 13 7 26 14 ESE 1019,0 - 0,0
16.12.2019 07:00:00 13,8 11,1 17 9 22 12 SE 1018,8 - 0,0
16.12.2019 06:00:00 13,7 10,5 2 1 7 4 SE 1018,7 - 0,0
16.12.2019 05:00:00 14,0 11,7 5 3 11 6 ESE 1018,5 - 0,0
16.12.2019 04:00:00 13,9 11,8 8 4 16 9 E 1018,6 - 0,0
16.12.2019 03:00:00 13,9 12,3 8 4 15 8 NNE 1019,0 - 0,0
16.12.2019 02:00:00 13,8 12,2 12 6 23 13 NNE 1018,7 - 0,0
16.12.2019 01:00:00 14,0 12,7 19 10 24 13 NNE 1018,4 - 0,0
16.12.2019 00:00:00 13,7 12,8 9 5 19 10 E 1018,4 - 0,0
15.12.2019 23:00:00 13,2 12,4 9 5 15 8 NE 1018,4 - 0,0
15.12.2019 22:00:00 13,5 12,6 9 5 14 7 E 1018,4 - 0,0
15.12.2019 21:00:00 13,4 12,6 6 3 10 5 NE 1018,4 - 0,0
15.12.2019 20:00:00 12,7 11,6 4 2 10 5 NE 1018,2 - 0,0
15.12.2019 19:00:00 12,8 11,4 4 2 13 7 E 1017,8 - 0,0
15.12.2019 18:00:00 13,5 11,5 4 2 18 10 WSW 1017,4 - 0,0
15.12.2019 17:00:00 13,9 11,6 10 5 21 12 W 1017,0 - 0,0
15.12.2019 16:00:00 15,2 12,7 8 4 21 12 SW 1016,6 18 0,0
15.12.2019 15:00:00 15,6 12,9 6 3 31 17 SSW 1016,4 - 0,0
15.12.2019 14:00:00 16,5 12,8 21 12 43 23 WSW 1016,2 - 0,0
15.12.2019 13:00:00 17,7 10,8 17 9 27 14 W 1016,1 - 0,0
15.12.2019 12:00:00 17,4 12,7 4 2 8 4 NE 1016,2 - 0,0
15.12.2019 11:00:00 18,1 12,3 4 2 9 5 ENE 1016,2 - 0,0
15.12.2019 10:00:00 16,7 10,5 4 2 17 9 W 1015,9 20 0,0
15.12.2019 09:00:00 13,9 9,7 13 7 27 15 SSW 1015,1 - 0,0
15.12.2019 08:00:00 15,0 10,4 19 10 44 24 WSW 1014,3 - 0,0
15.12.2019 07:00:00 15,5 9,8 30 16 66 35 WSW 1013,6 - 0,0
15.12.2019 06:00:00 15,5 10,5 36 20 79 42 WSW 1013,1 - 0,0
15.12.2019 05:00:00 15,4 11,4 34 18 96 52 SW 1012,9 - 0,0
15.12.2019 04:00:00 15,3 11,5 50 27 102 55 WSW 1012,4 - 0,0
15.12.2019 03:00:00 15,2 11,8 53 28 111 60 WSW 1012,1 - 0,0
15.12.2019 02:00:00 15,3 11,9 60 32 122 66 WSW 1011,6 - 0,0
15.12.2019 01:00:00 15,4 11,8 63 34 - - W 1010,8 - 0,0
15.12.2019 00:00:00 15,9 11,7 46 25 102 55 WSW 1011,3 - 0,0
14.12.2019 23:00:00 16,7 10,1 56 30 102 55 WSW 1010,7 - 0,0
14.12.2019 22:00:00 16,8 9,7 59 32 127 68 W 1009,8 - 0,0
14.12.2019 21:00:00 16,4 10,5 72 39 116 62 WSW 1008,6 - 0,0
14.12.2019 20:00:00 16,4 10,5 72 39 124 67 WSW 1008,3 - 0,0
14.12.2019 19:00:00 16,3 10,6 83 45 129 70 WSW 1008,0 - 0,0
14.12.2019 18:00:00 16,0 11,2 91 49 146 79 WSW 1007,0 - 0,0
14.12.2019 17:00:00 16,1 11,3 86 46 131 71 WSW 1006,7 - 0,0
14.12.2019 16:00:00 16,4 10,9 83 45 132 72 WSW 1006,3 - 0,0
14.12.2019 15:00:00 16,4 11,5 85 46 135 73 WSW 1005,3 - 0,0
14.12.2019 14:00:00 16,1 11,7 79 42 141 76 WSW 1004,7 - 0,0
14.12.2019 13:00:00 15,7 11,7 86 47 140 76 WSW 1004,1 - 0,0
14.12.2019 12:00:00 15,6 11,6 77 41 145 79 WSW 1003,7 - 0,0
14.12.2019 11:00:00 15,5 11,5 78 42 140 76 WSW 1002,6 - 0,0
14.12.2019 10:00:00 15,1 11,5 77 42 140 76 WSW 1002,2 - 0,0
14.12.2019 09:00:00 14,7 10,9 77 41 127 68 WSW 1000,3 - 0,0
14.12.2019 08:00:00 14,2 11,0 60 32 144 78 WSW 1000,3 - 0,0
14.12.2019 07:00:00 13,5 10,3 77 41 135 73 WSW 997,7 8 0,0
14.12.2019 06:00:00 13,3 9,4 69 37 118 64 WSW 998,7 - 0,0
14.12.2019 05:00:00 12,8 7,9 89 48 129 70 WSW 998,0 8 0,0
14.12.2019 04:00:00 12,9 8,0 84 45 126 68 W 997,4 - 0,0
14.12.2019 03:00:00 12,7 7,6 65 35 103 56 W 998,0 - 0,0
14.12.2019 02:00:00 12,5 7,6 66 36 96 52 W 996,4 - 0,0
14.12.2019 01:00:00 12,8 7,5 72 39 102 55 W 995,7 - 0,0
14.12.2019 00:00:00 12,9 6,9 84 45 107 58 W 994,4 - 0,0
13.12.2019 23:00:00 13,1 7,3 63 34 102 55 W 993,4 - 0,0
13.12.2019 22:00:00 12,5 6,3 74 40 - - W 992,9 - 0,0
13.12.2019 21:00:00 12,7 6,3 74 40 98 53 W 992,2 - 0,0
13.12.2019 20:00:00 12,8 7,5 80 43 108 58 W 991,2 - 0,0
13.12.2019 19:00:00 13,2 7,0 78 42 105 57 W 990,1 - 0,0
13.12.2019 18:00:00 11,0 7,3 47 26 58 32 W 989,8 - 0,0
13.12.2019 17:00:00 10,4 6,9 40 22 58 31 W 989,1 - 0,0
13.12.2019 16:00:00 10,5 7,4 41 22 61 33 WNW 987,8 12 0,0
13.12.2019 15:00:00 11,5 8,4 - - - - - 985,8 - 0,0
13.12.2019 14:00:00 15,1 9,2 97 53 140 75 W 983,2 - 0,0
13.12.2019 13:00:00 14,3 10,7 98 53 169 91 W 982,8 - 0,0
13.12.2019 12:00:00 14,0 12,4 82 44 174 94 WSW 983,9 - 0,8
13.12.2019 11:00:00 13,5 12,1 91 49 148 80 WSW 986,4 - 0,4
13.12.2019 10:00:00 13,2 10,9 69 38 129 70 WSW 988,7 - 0,2
13.12.2019 09:00:00 12,8 11,5 63 34 113 61 WSW 990,7 - 0,6
13.12.2019 08:00:00 12,5 10,6 58 32 95 52 W 991,8 - 0,0
13.12.2019 07:00:00 12,5 9,5 62 34 100 54 W 992,9 - 0,0
13.12.2019 06:00:00 11,0 9,6 37 20 85 46 WSW 993,9 - 3,9
13.12.2019 05:00:00 9,9 8,3 32 18 66 35 SW 995,1 - 3,0
13.12.2019 04:00:00 10,0 7,4 12 7 40 22 SSE 996,4 - 0,2
13.12.2019 03:00:00 11,0 6,1 16 8 52 28 SSW 998,0 - 0,0
13.12.2019 02:00:00 10,9 6,8 26 14 84 46 SW 999,1 - 0,2
13.12.2019 01:00:00 10,4 8,2 41 22 118 64 WSW 999,7 - 1,4
13.12.2019 00:00:00 12,4 7,9 54 29 98 53 W 1001,0 - 0,0
12.12.2019 23:00:00 12,2 6,2 69 38 97 53 W 1001,0 - 0,0
12.12.2019 22:00:00 11,7 3,7 57 31 91 49 WSW 1001,7 - 0,0
12.12.2019 21:00:00 11,2 3,0 48 26 82 45 WSW 1002,8 - 0,0
12.12.2019 20:00:00 11,0 3,0 47 25 71 38 W 1003,3 - 0,0
12.12.2019 19:00:00 10,8 3,3 45 25 68 37 W 1003,9 - 0,0
12.12.2019 18:00:00 10,6 2,9 46 25 78 42 W 1003,7 - 0,0
12.12.2019 17:00:00 10,6 3,8 49 26 71 38 W 1003,8 - 0,0
12.12.2019 16:00:00 10,9 4,1 49 27 71 39 W 1003,8 15 0,0
12.12.2019 15:00:00 10,9 5,2 42 23 61 33 W 1004,1 - 0,0
12.12.2019 14:00:00 11,2 6,3 28 15 41 22 W 1004,8 - 0,0
12.12.2019 13:00:00 11,6 6,9 29 16 72 39 W 1004,9 - 0,0
12.12.2019 12:00:00 11,7 7,4 53 28 86 47 W 1004,5 - 0,0
12.12.2019 11:00:00 11,3 5,4 47 25 86 47 WSW 1004,7 - 0,0
12.12.2019 10:00:00 11,3 5,8 48 26 67 36 W 1004,7 15 0,0
12.12.2019 09:00:00 11,1 5,0 51 28 82 44 W 1004,2 - 0,0
12.12.2019 08:00:00 11,0 5,3 56 30 81 44 W 1003,4 - 0,0
12.12.2019 07:00:00 10,2 8,0 41 22 56 31 W 1003,9 - 0,0
12.12.2019 06:00:00 10,5 8,4 44 24 60 33 W 1003,7 - 0,0
12.12.2019 05:00:00 10,5 8,6 47 26 103 56 WNW 1003,3 - 0,4
12.12.2019 04:00:00 11,4 6,3 61 33 129 69 WSW 1002,4 - 0,0
12.12.2019 03:00:00 12,1 5,9 68 37 100 54 WSW 1002,6 - 0,0
12.12.2019 02:00:00 11,7 8,2 58 31 98 53 WSW 1004,5 - 0,2
12.12.2019 01:00:00 11,5 7,6 35 19 82 44 SW 1006,2 - 0,0
12.12.2019 00:00:00 12,6 8,3 48 26 87 47 WSW 1007,0 - 0,0
11.12.2019 23:00:00 13,3 7,7 59 32 87 47 W 1007,0 - 0,0
11.12.2019 22:00:00 13,2 7,0 43 23 88 47 WSW 1007,7 - 0,0
11.12.2019 21:00:00 12,9 6,5 50 27 74 40 WSW 1008,6 - 0,0
11.12.2019 20:00:00 12,7 5,1 44 24 67 36 WSW 1009,6 - 0,0
11.12.2019 19:00:00 12,5 4,2 42 23 58 31 W 1010,8 - 0,0
11.12.2019 18:00:00 12,2 2,6 39 21 48 26 W 1011,4 - 0,0
11.12.2019 17:00:00 12,1 3,1 35 19 48 26 W 1012,1 - 0,0
11.12.2019 16:00:00 12,1 2,5 24 13 32 17 W 1012,6 15 0,0
11.12.2019 15:00:00 12,9 3,0 20 11 29 16 W 1013,1 - 0,0
11.12.2019 14:00:00 13,9 3,1 21 11 29 16 W 1014,0 - 0,0
11.12.2019 13:00:00 13,6 5,5 22 12 39 21 W 1014,8 - 0,0
11.12.2019 12:00:00 13,5 6,1 21 11 35 19 WSW 1015,5 - 0,0
11.12.2019 11:00:00 12,9 5,8 16 8 34 18 WSW 1016,6 - 0,0
11.12.2019 10:00:00 11,7 5,6 18 10 29 16 SW 1017,2 - 0,0
11.12.2019 09:00:00 9,7 3,6 0 0 11 6 N 1017,7 - 0,0
11.12.2019 08:00:00 8,5 2,9 10 5 16 8 E 1017,9 - 0,0
11.12.2019 07:00:00 9,2 2,7 12 7 26 14 E 1018,2 - 0,0
11.12.2019 06:00:00 9,5 2,6 14 8 24 13 E 1018,2 - 0,0
11.12.2019 05:00:00 10,1 2,7 19 10 29 16 ESE 1018,5 - 0,0
11.12.2019 04:00:00 10,2 2,5 20 11 41 22 ESE 1019,1 - 0,0
11.12.2019 03:00:00 11,1 2,6 24 13 41 22 E 1019,4 - 0,0
11.12.2019 02:00:00 12,4 2,8 26 14 43 23 E 1019,7 - 0,0
11.12.2019 01:00:00 12,5 3,2 32 17 53 28 E 1019,9 - 0,0
11.12.2019 00:00:00 12,6 3,3 38 21 58 31 E 1020,0 - 0,0
10.12.2019 23:00:00 13,0 1,6 40 21 61 33 E 1020,1 - 0,0
10.12.2019 22:00:00 13,4 2,9 38 20 54 29 E 1019,5 - 0,0
10.12.2019 21:00:00 13,2 3,8 31 17 46 25 E 1019,8 - 0,0
10.12.2019 20:00:00 12,4 3,3 21 11 39 21 E 1019,4 - 0,0
10.12.2019 19:00:00 12,4 3,9 21 12 34 18 E 1018,7 - 0,0
10.12.2019 18:00:00 12,0 4,5 18 10 29 16 E 1017,9 - 0,0
10.12.2019 17:00:00 12,1 5,0 21 12 31 17 ESE 1017,3 - 0,0
10.12.2019 16:00:00 11,8 5,0 16 9 22 12 E 1017,1 20 0,0
10.12.2019 15:00:00 14,2 5,0 17 9 26 14 E 1016,9 - 0,0
10.12.2019 14:00:00 14,6 6,4 16 8 27 15 E 1016,6 - 0,0
10.12.2019 13:00:00 14,7 6,5 16 9 27 15 E 1016,6 - 0,0

tt = temperature
td = dewpoint
ff = wind speed
fx = gusts
dd = wind direction
ppp = reduced air pressure
vv = visibility
rr = precipitation

Next stations